Location: *
(33.8649°S, 62.1526°E)
Time: 13:01:26
(UTC+00:00)

Terra - Pass Details

Date: 17 January 2021
Orbit: 701 x 703 km, 98.2° (Epoch: 02 March)

Event Time Altitude Azimuth Distance (km) Brightness Sun altitude
Rises 18:01:36 0° 158° (SSE) 3,122 5.6 -28.5°
Reaches altitude 10° 18:04:02 10° 149° (SSE) 2,196 4.7 -28.8°
Enters shadow 18:05:58 22° 134° (SE) 1,545 3.6 -29.0°
